METEOR 2-5 DEB

Satellite information

Favourite Embed

Satellite Type and Status

DEBRISIN ORBIT

Key statistics

Satellite METEOR 2-5 DEB at a glance.

Uptime

16626

Days in orbit

Revolutions

≈ 14.6

Per day

Orbit

LEO

Low Earth Orbit

Inclination

81.2

Latest

Satellite identification and parameters

Extended collection of information and parameters for METEOR 2-5 DEB.

Object identification

Identified? True

Debris? True

Object name: METEOR 2-5 DEB

International designator: 1979-095T

Object number (NORAD): 31404

Object ID (CCSDS): 31404

Country: COMMONWEALTH OF INDEPENDENT STATES (CIS)

Current information (Y/N): Y

RCS size: SMALL

Orbital parameters

Period: 98.742 minutes

Inclination: 81.1915 deg

SMA: 7076.637 km

Apoapsis: 701.157 km

Periapsis: 695.847 km

RAAN: 129.4515 deg

Eccentricy: 0.0003752

Argument of periapsis: 334.3657 deg

Mean anomaly: 199.1281 deg

Mean motion: 14.58352005 rev/day

Mean motion (dot): 0.00026217 rev/day2

B* drag term: 0.0056431 1/REarth

Two-line elements (TLE)

Creation date: May 4, 2025, 2:26 a.m.

Reference frame: TEME

Reference center: EARTH

Epoch: May 3, 2025, 6:52 p.m. UTC

TLE line 0: 0 METEOR 2-5 DEB

TLE line 1: 1 31404U 79095T 25123.78642961 .00026217 00000-0 56431-2 0 9997

TLE line 2: 2 31404 81.1915 129.4515 0003752 334.3657 199.1281 14.58352005616540

Live tracking on map

Real-time ground track for satellite METEOR 2-5 DEB.

In-orbit conjunctions

A list of the most updated potential collisions computed for object METEOR 2-5 DEB.

Target Orbit TCA Probability of collision Miss distance Type
DMSP 5D-2 F15 DEB SSO 2024-09-26 04:45:20 0.0001582542 697.0 (m) DEBRIS

Associated space launch

Second generation soviet meteorological satellite

METEOR 2-5 DEB was lifted into orbit during the mission ‘Vostok 8A92M | Meteor-2 5’, on board a Vostok 8A92M space rocket.

The launch took place on Oct. 31, 1979, 9:25 a.m. from 43/4 (43R).

For more information about the launch, click the button.

Launch to space Vostok 8A92M | Meteor-2 5
Vostok 8A92M | Meteor-2 5

Agency: N/A

Status: Launch Successful

Launch date: Oct. 31, 1979, 9:25 a.m. UTC

Rocket: Vostok 8A92M

Launch pad: 43/4 (43R)

Location: Plesetsk Cosmodrome, Russian Federation

...

Latest news about this satellite

There are no fresh news available about this satellite. Check back as we update our databases every day.


Newsletter sign-up

Weekly statistics, charts and insights to help you stay on top of the space industry.